Skip Page Navigation
NASA JPL Caltech
NASA Logo - Jet Propulsion Laboratory + View the NASA Portal
+ Center for Near-Earth Object Studies
JPL Home Earth Solar System Stars & Galaxies Technology
JPL Solar System Dynamics
BODIES ORBITS EPHEMERIDES TOOLS PHYSICAL DATA DISCOVERY FAQ SITE MAP
IMPORTANT: The SSD Announcement email list is now available. Major changes are coming in the near future, including possible hostname and/or URL changes. To be notified of such changes, subscribe to this email list.

Please visit this page for more details.


JPL Small-Body Database Browser
Search: [ help ]  
46627 (1994 PG24)
Classification: Main-belt Asteroid          SPK-ID: 2046627
Ephemeris | Orbit Diagram | Orbital Elements | Mission Design | Physical Parameters | Discovery Circumstances ]

[ show orbit diagram ]
Orbital Elements at Epoch 2458600.5 (2019-Apr-27.0) TDB
Reference: JPL 21 (heliocentric ecliptic J2000)
 Element Value Uncertainty (1-sigma)   Units 
e .149574476571527 3.761e-08  
a 2.402634130505632 8.9125e-09 au
q 2.043261388042366 9.0578e-08 au
i 1.776954816695322 3.9636e-06 deg
node 139.5028159419756 0.00015753 deg
peri 305.3348240006251 0.00015841 deg
M 128.8797550229523 1.636e-05 deg
tp 2458113.518916978158
(2017-Dec-26.01891698)
6.1083e-05 TDB
period 1360.284940459744
3.72
7.5689e-06
2.072e-08
d
yr
n .2646504341056136 1.4726e-09 deg/d
Q 2.762006872968897 1.0246e-08 au
  Orbit Determination Parameters
   # obs. used (total)      1208  
   data-arc span      9038 days (24.74 yr)  
   first obs. used      1994-08-12  
   last obs. used      2019-05-11  
   planetary ephem.      DE431  
   SB-pert. ephem.      SB431-N16  
   condition code      0  
   norm. resid. RMS      .55644  
   source      ORB  
   producer      Otto Matic  
   solution date      2019-May-30 04:33:55  

Additional Information
 Earth MOID = 1.06 au 
 Jupiter MOID = 2.44245 au 
 T_jup = 3.509 
[ show covariance matrix ]

Ephemeris | Orbit Diagram | Orbital Elements | Mission Design | Physical Parameters | Discovery Circumstances ]

Physical Parameter Table
Parameter Symbol Value Units Sigma Reference Notes
absolute magnitude H 15.0   n/a MPO266175  

46627 (1994 PG24)          Discovered 1994-Aug-12 by Elst, E. W. at La Silla
Reference: 20020921/Numbers.arcLast Updated: 2004-04-19

Alternate Designations
 1994 PG24 = 1998 SW58 
Ephemeris | Orbit Diagram | Orbital Elements | Mission Design | Physical Parameters | Discovery Circumstances ]
ABOUT SSD CREDITS/AWARDS PRIVACY/COPYRIGHT GLOSSARY LINKS
FirstGov
(server date/time)  
NASA Home Page
Site Manager:   Ryan S. Park
Webmaster  Alan B. Chamberlin